(19) Fortuna
ephemeris date magn radius delta ra dec elong phase
Today18 Jul 202512.02.327 AU3.343 AU07h47m+20°02'1.1°0.5°
Opposition12 Mar 202610.92.700 AU1.707 AU11h29m+01°38'178.3°0.6°
(19) Fortuna - 2025-07-18
astro.vanbuitenen.nl


 
-1 year
-1 month
-1 day
Now
+1 day
+1 month
+1 year

The interactive orbit chart above shows the body's path through the solar system and its position at the given date. Green and blue lines are shown perpendicular to the ecliptic plane: Green if the path is above the ecliptic plane, blue if it is below. (Left-click and drag to rotate the view; Right-click and drag to move the view; Use scroll wheel to zoom in our out.)

The orbital elements of Fortuna are:

            e (Eccentricity)                : 0.1578698
            a (Semimajor axis)              : 2.4429432
            i (Inclination)                 : 1.57334
            Ω (Longitude of ascending node) : 211.03056
            ω (Argument of perihelion)      : 182.64799
            M (Mean anomaly)                : 44.72456
            Epoch                           : 2025 May 05

            L (Longitude of perihelion)     : 213.67755
            B (Latitude of perihelion)      : -0.07268
            P (Orbital period in years)     : 3.82            
        

The light curve chart below shows the estimated development of the minor planet's magnitude.


The all-sky chart below shows the path of the minor planet over the same period as the light curve. The current position is marked yellow.





The following chart shows the path of the minor planet in the next few days. The field of view is optimized for (~10x50) binoculars and finderscopes. A more printer-friendly version of the same chart can be found below.




Ephemerides:
Date       Time       RA (2000)    DEC (2000)    delta   radius  elong  phase   PA    magn
2025-07-18 00:00 UT   07 47 17.2   +20 02 39     3.343    2.327    1.1    0.5   201   12.0 
2025-07-18 22:50 UT   07 49 13.2   +19 57 35     3.344    2.328    1.3    0.6   222   12.1 
2025-07-19 00:00 UT   07 49 19.1   +19 57 19     3.344    2.328    1.3    0.6   222   12.1 
2025-07-20 00:00 UT   07 51 20.8   +19 51 55     3.346    2.330    1.6    0.7   237   12.1 
2025-07-21 00:00 UT   07 53 22.1   +19 46 25     3.347    2.332    1.9    0.8   247   12.1 
2025-07-22 00:00 UT   07 55 23.2   +19 40 50     3.348    2.334    2.4    1.0   254   12.1 
2025-07-23 00:00 UT   07 57 24.1   +19 35 10     3.350    2.335    2.8    1.2   258   12.1 
2025-07-24 00:00 UT   07 59 24.6   +19 29 25     3.351    2.337    3.2    1.4   262   12.1 
2025-07-25 00:00 UT   08 01 24.9   +19 23 36     3.352    2.339    3.7    1.6   264   12.2 
2025-07-26 00:00 UT   08 03 24.9   +19 17 41     3.352    2.341    4.1    1.8   266   12.2 
2025-07-27 00:00 UT   08 05 24.6   +19 11 42     3.353    2.342    4.6    2.0   268   12.2 
2025-07-28 00:00 UT   08 07 24.0   +19 05 38     3.354    2.344    5.0    2.2   270   12.2 
2025-07-29 00:00 UT   08 09 23.1   +18 59 29     3.354    2.346    5.5    2.4   271   12.2 
2025-07-30 00:00 UT   08 11 21.9   +18 53 16     3.355    2.348    6.0    2.6   272   12.3 
2025-07-31 00:00 UT   08 13 20.4   +18 46 58     3.355    2.349    6.4    2.8   273   12.3 
2025-08-01 00:00 UT   08 15 18.6   +18 40 36     3.355    2.351    6.9    3.0   274   12.3 
2025-08-02 00:00 UT   08 17 16.5   +18 34 09     3.356    2.353    7.4    3.2   274   12.3 
2025-08-03 00:00 UT   08 19 14.1   +18 27 38     3.356    2.355    7.9    3.4   275   12.3 
2025-08-04 00:00 UT   08 21 11.4   +18 21 02     3.356    2.356    8.3    3.6   276   12.3 


    Terminology:
            
    delta:  distance between minor planet and earth in AU
    radius: distance between minor planet and sun in AU
    magn:   magnitude (brightness) estimate    
    ra:     right ascension in hours (24h = 360deg)
    dec:    declination in degrees
    elong:  elongation in degrees (angle sun-earth-minor planet)    
    phase:  phase angle in degrees (angle sun-minor planet-earth)        
    AU:     Astronomical Unit (mean distance between earth and sun: 149597870.7 km
    

Orbital elements provided by the MPC (Minor Planet Center).
Calculations by a modified version of AAPlus, a C# implementation of the AA+ project by PJ Naughter from the algorithms presented in the book "Astronomical Algorithms" by Jean Meeus.
NGC2000 dso catalog and star labels from VizieR as provided by the Strasbourg astronomical Data Center.
Tycho2 catalog from the ESO archive.